Location: Beulah
(33.1426°N, 83.0557°W)
Time: 04:08:32
(UTC+00:00)

Envisat - Pass Details

Date: 03 December 2021
Orbit: 764 x 766 km, 98.2° (Epoch: 23 January)

Event Time Altitude Azimuth Distance (km) Brightness Sun altitude
Rises 09:33:45 0° 28° (NNE) 3,235 6.5 -34.0°
Reaches altitude 10° 09:36:30 10° 42° (NE) 2,305 5.8 -33.4°
Maximum altitude 09:40:33 24° 95° (E) 1,554 5.2 -32.6°
Drops below altitude 10° 09:44:34 10° 149° (SSE) 2,292 5.9 -31.8°
Sets 09:47:17 0° 163° (SSE) 3,214 6.5 -31.2°
